This is the latest recevied weather packets stored in our database for station/object CT4TX-11. If no packets are shown the sender has not sent any weather packets the latest 10 day(s).
| Time | Temp. | Humidity | Pressure | Rain* | Wind** | Luminosity | Snow |
|---|---|---|---|---|---|---|---|
| 1788165378 | 28.89° C | 43% | 1008.8 hPa | - | - | - | - |
| 1788164469 | 28.89° C | 42% | 1008.8 hPa | - | - | - | - |
| 1788163568 | 28.89° C | 42% | 1008.7 hPa | - | - | - | - |
| 1788162668 | 28.33° C | 43% | 1008.7 hPa | - | - | - | - |
| 1788161768 | 27.78° C | 45% | 1008.4 hPa | - | - | - | - |
| 1788160868 | 27.78° C | 46% | 1008.4 hPa | - | - | - | - |
| 1788159967 | 27.22° C | 48% | 1008.3 hPa | - | - | - | - |
| 1788159067 | 27.22° C | 45% | 1008.3 hPa | - | - | - | - |
| 1788158167 | 27.78° C | 43% | 1008.2 hPa | - | - | - | - |
| 1788157267 | 28.33° C | 42% | 1008.3 hPa | - | - | - | - |
| 1788156367 | 28.89° C | 42% | 1008.1 hPa | - | - | - | - |
| 1788155466 | 28.89° C | 42% | 1008 hPa | - | - | - | - |
| 1788154566 | 28.89° C | 42% | 1008 hPa | - | - | - | - |
| 1788153666 | 28.89° C | 42% | 1008 hPa | - | - | - | - |
| 1788152766 | 28.89° C | 42% | 1008 hPa | - | - | - | - |
| 1788151865 | 28.33° C | 42% | 1007.7 hPa | - | - | - | - |
| 1788150965 | 28.33° C | 42% | 1007.7 hPa | - | - | - | - |
| 1788150064 | 28.89° C | 42% | 1008.2 hPa | - | - | - | - |
| 1788149162 | 28.89° C | 43% | 1008.2 hPa | - | - | - | - |
| 1788148268 | 28.89° C | 43% | 1008.3 hPa | - | - | - | - |
| 1788147368 | 28.89° C | 43% | 1008.3 hPa | - | - | - | - |
| 1788146467 | 28.89° C | 43% | 1008.4 hPa | - | - | - | - |
| 1788145567 | 28.89° C | 43% | 1008.5 hPa | - | - | - | - |
| 1788144667 | 28.89° C | 43% | 1008.4 hPa | - | - | - | - |
| 1788143767 | 28.89° C | 43% | 1008.4 hPa | - | - | - | - |
* Rain since midnight (hover to see other rain measurements)
** Current wind speed in m/s (hover to see current wind gust speed)